Location: Sternwarte_Laufen
(47.9344°N, 12.9346°E)
Time: 14:09:18
(UTC+02:00)

ISS - Pass Details

Date: 17 May 2018
Orbit: 402 x 407 km, 51.6° (Epoch: 25 May)

Event Time Altitude Azimuth Distance (km) Brightness Sun altitude
Exits shadow 01:06:26 19° 68° (ENE) 1,033 -1.6 -22.8°
Drops below altitude 10° 01:07:29 10° 68° (ENE) 1,459 -0.8 -22.8°
Sets 01:09:34 0° 67° (ENE) 2,320 0.3 -22.8°
